Weather History for KBPC - May, 2014

Change the Weather History Date:

Friday, May 9, 2014

  Actual Average (KBGD) Record (KBGD)
Temperature  
Mean Temperature 62 °F 66 °F  
Max Temperature 82 °F 79 °F 97 °F (1996)
Min Temperature 42 °F 53 °F 40 °F (1964)
Degree Days  
Heating Degree Days 3 3  
Month to date heating degree days 31  
Since 1 July heating degree days 3734  
Cooling Degree Days 0 4  
Month to date cooling degree days 27  
Year to date cooling degree days 71  
Growing Degree Days 12 (Base 50)    
Moisture  
Dew Point 30 °F    
Average Humidity 34    
Maximum Humidity 76    
Minimum Humidity 10    
Precipitation  
Precipitation 0.00 in 0.08 in 1.04 in (1998)
Month to date precipitation 0.46  
Year to date precipitation 4.62  
Snow  
Snow 0.00 in - T in (1955)
Month to date snowfall  
Since 1 July snowfall  
Snow Depth -    
Sea Level Pressure  
Sea Level Pressure 29.89 in    
Wind  
Wind Speed 8 mph (WSW)    
Max Wind Speed 23 mph    
Max Gust Speed 31 mph    
Visibility 10 miles    
Events      
T = Trace of Precipitation, MM = Missing Value Source: NWS Daily Summary

Daily Weather History Graph

Daily Weather History Graph

Search for Another Location

Airport or City:

Trip Planner

Search our weather history database for the weather conditions in past years. The results will help you decide how hot, cold, wet, or windy it might be!

Date:

Astronomy

May. 09, 2014 Rise Set
Actual Time 6:43 AM CDT 8:37 PM CDT
Civil Twilight 6:15 AM CDT 9:06 PM CDT
Nautical Twilight 5:41 AM CDT 9:40 PM CDT
Astronomical Twilight 5:05 AM CDT 10:16 PM CDT
Moon 3:46 PM CDT (5/9) 3:36 AM CDT (5/9)
Length of Visible Light 14h 50m
Length of Day
13h 54m
Waxing Gibbous, 74% of the Moon is Illuminated
May 9
Waxing Gibbous
May 14
Full
May 21
Last Quarter
May 28
New
Jun 5
First Quarter

Hourly Weather History & Observations

Time (CDT) Temp. Windchill Dew Point Humidity Pressure Visibility Wind Dir Wind Speed Gust Speed Precip Events Conditions
12:15 AM 59.0 °F - 24.8 °F 27% 29.87 in 10.0 mi WNW 9.2 mph - N/A   Clear
12:35 AM 60.8 °F - 28.4 °F 29% 29.88 in 10.0 mi North 6.9 mph - N/A   Clear
12:55 AM 62.6 °F - 32.0 °F 32% 29.87 in 10.0 mi ENE 12.7 mph 19.6 mph N/A   Clear
1:15 AM 60.8 °F - 33.8 °F 36% 29.88 in 10.0 mi NE 9.2 mph - N/A   Clear
1:35 AM 59.0 °F - 33.8 °F 39% 29.90 in 10.0 mi NNE 9.2 mph - N/A   Clear
1:55 AM 59.0 °F - 33.8 °F 39% 29.90 in 10.0 mi NE 9.2 mph - N/A   Clear
2:15 AM 57.2 °F - 35.6 °F 44% 29.91 in 10.0 mi NE 10.4 mph - N/A   Clear
2:35 AM 55.4 °F - 35.6 °F 47% 29.91 in 10.0 mi NE 9.2 mph - N/A   Clear
2:55 AM 53.6 °F - 35.6 °F 51% 29.92 in 10.0 mi NNE 11.5 mph - N/A   Clear
3:15 AM 53.6 °F - 35.6 °F 51% 29.93 in 10.0 mi NNE 9.2 mph - N/A   Clear
3:35 AM 51.8 °F - 35.6 °F 54% 29.93 in 10.0 mi NE 6.9 mph - N/A   Clear
3:55 AM 50.0 °F - 35.6 °F 58% 29.94 in 10.0 mi North 8.1 mph - N/A   Clear
4:15 AM 50.0 °F - 35.6 °F 58% 29.95 in 10.0 mi North 9.2 mph - N/A   Clear
4:35 AM 48.2 °F - 35.6 °F 62% 29.96 in 10.0 mi North 5.8 mph - N/A   Clear
4:55 AM 48.2 °F - 35.6 °F 62% 29.97 in 10.0 mi NNW 6.9 mph - N/A   Clear
5:15 AM 46.4 °F - 35.6 °F 66% 29.97 in 10.0 mi Calm Calm - N/A   Clear
5:35 AM 46.4 °F 45.2 °F 35.6 °F 66% 29.98 in 10.0 mi NW 3.5 mph - N/A   Clear
5:55 AM 46.4 °F 42.4 °F 37.4 °F 71% 29.98 in 10.0 mi NW 8.1 mph - N/A   Clear
6:15 AM 44.6 °F - 35.6 °F 71% 29.98 in 10.0 mi Calm Calm - N/A   Clear
6:35 AM 42.8 °F 40.1 °F 35.6 °F 76% 29.99 in 10.0 mi WNW 4.6 mph - N/A   Clear
6:55 AM 44.6 °F 40.7 °F 35.6 °F 71% 29.99 in 10.0 mi NNW 6.9 mph - N/A   Clear
7:15 AM 44.6 °F - 35.6 °F 71% 30.00 in 10.0 mi Calm Calm - N/A   Clear
7:35 AM 44.6 °F - 37.4 °F 76% 30.01 in 10.0 mi Calm Calm - N/A   Clear
7:55 AM 48.2 °F - 37.4 °F 66% 30.03 in 10.0 mi WNW 3.5 mph - N/A   Clear
8:15 AM 50.0 °F - 37.4 °F 62% 30.01 in 10.0 mi Calm Calm - N/A   Clear
8:35 AM 51.8 °F - 37.4 °F 58% 30.03 in 10.0 mi Calm Calm - N/A   Clear
8:55 AM 51.8 °F - 37.4 °F 58% 30.04 in 10.0 mi Calm Calm - N/A   Clear
9:15 AM 53.6 °F - 37.4 °F 54% 30.03 in 10.0 mi Calm Calm - N/A   Clear
9:35 AM 55.4 °F - 37.4 °F 51% 30.02 in 10.0 mi Calm Calm - N/A   Clear
9:55 AM 57.2 °F - 37.4 °F 48% 30.01 in 10.0 mi Calm Calm - N/A   Clear
10:15 AM 59.0 °F - 37.4 °F 45% 30.01 in 10.0 mi Calm Calm - N/A   Clear
10:35 AM 60.8 °F - 37.4 °F 42% 30.00 in 10.0 mi Calm Calm - N/A   Clear
10:55 AM 62.6 °F - 37.4 °F 39% 29.99 in 10.0 mi Calm Calm - N/A   Clear
11:15 AM 64.4 °F - 35.6 °F 34% 29.98 in 10.0 mi SW 3.5 mph - N/A   Clear
11:35 AM 66.2 °F - 35.6 °F 32% 29.98 in 10.0 mi SE 4.6 mph - N/A   Clear
11:55 AM 68.0 °F - 35.6 °F 30% 29.98 in 10.0 mi SE 4.6 mph - N/A   Clear
12:15 PM 68.0 °F - 35.6 °F 30% 29.97 in 10.0 mi Calm Calm - N/A   Clear
12:35 PM 71.6 °F - 35.6 °F 27% 29.97 in 10.0 mi SE 8.1 mph - N/A   Clear
12:55 PM 71.6 °F - 32.0 °F 23% 29.96 in 10.0 mi West 4.6 mph - N/A   Clear
1:15 PM 71.6 °F - 32.0 °F 23% 29.95 in 10.0 mi SW 6.9 mph - N/A   Clear
1:35 PM 73.4 °F - 32.0 °F 22% 29.94 in 10.0 mi WSW 11.5 mph 16.1 mph N/A   Clear
1:55 PM 75.2 °F - 30.2 °F 19% 29.93 in 10.0 mi WSW 15.0 mph 21.9 mph N/A   Clear
2:15 PM 77.0 °F - 28.4 °F 17% 29.92 in 10.0 mi West 12.7 mph - N/A   Clear
2:35 PM 78.8 °F - 28.4 °F 16% 29.90 in 10.0 mi SW 12.7 mph 17.3 mph N/A   Clear
2:55 PM 77.0 °F - 28.4 °F 17% 29.89 in 10.0 mi WSW 6.9 mph 17.3 mph N/A   Clear
3:15 PM 77.0 °F - 28.4 °F 17% 29.87 in 10.0 mi SW 8.1 mph - N/A   Clear
3:35 PM 78.8 °F - 24.8 °F 14% 29.86 in 10.0 mi WSW 15.0 mph 18.4 mph N/A   Clear
3:55 PM 78.8 °F - 23.0 °F 13% 29.85 in 10.0 mi South 11.5 mph 19.6 mph N/A   Clear
4:15 PM 78.8 °F - 23.0 °F 13% 29.84 in 10.0 mi WSW 9.2 mph 17.3 mph N/A   Clear
4:35 PM 80.6 °F - 26.6 °F 14% 29.83 in 10.0 mi SSW 11.5 mph 18.4 mph N/A   Clear
4:55 PM 80.6 °F - 24.8 °F 13% 29.82 in 10.0 mi SW 13.8 mph 26.5 mph N/A   Clear
5:15 PM 80.6 °F - 24.8 °F 13% 29.80 in 10.0 mi SW 13.8 mph 21.9 mph N/A   Clear
5:35 PM 82.4 °F - 26.6 °F 13% 29.80 in 10.0 mi WSW 10.4 mph 26.5 mph N/A   Clear
5:55 PM 82.4 °F - 26.6 °F 13% 29.79 in 10.0 mi SW 16.1 mph 21.9 mph N/A   Clear
6:15 PM 80.6 °F - 24.8 °F 13% 29.78 in 10.0 mi West 11.5 mph 18.4 mph N/A   Clear
6:35 PM 80.6 °F - 23.0 °F 12% 29.78 in 10.0 mi WSW 8.1 mph - N/A   Clear
6:55 PM 82.4 °F - 23.0 °F 11% 29.77 in 10.0 mi SW 10.4 mph 20.7 mph N/A   Clear
7:15 PM 82.4 °F - 19.4 °F 10% 29.76 in 10.0 mi WSW 16.1 mph 21.9 mph N/A   Clear
7:35 PM 80.6 °F - 17.6 °F 10% 29.75 in 10.0 mi WSW 17.3 mph 23.0 mph N/A   Clear
7:55 PM 82.4 °F - 19.4 °F 10% 29.75 in 10.0 mi WSW 17.3 mph 21.9 mph N/A   Clear
8:15 PM 78.8 °F - 19.4 °F 11% 29.75 in 10.0 mi WSW 9.2 mph - N/A   Clear
8:35 PM 75.2 °F - 19.4 °F 12% 29.75 in 10.0 mi SSW 6.9 mph - N/A   Clear
8:55 PM 69.8 °F - 17.6 °F 14% 29.75 in 10.0 mi South 9.2 mph - N/A   Clear
9:15 PM 69.8 °F - 19.4 °F 15% 29.75 in 10.0 mi South 11.5 mph - N/A   Clear
9:35 PM 71.6 °F - 19.4 °F 14% 29.76 in 10.0 mi South 11.5 mph - N/A   Clear
9:55 PM 71.6 °F - 19.4 °F 14% 29.76 in 10.0 mi South 12.7 mph - N/A   Clear
10:15 PM 69.8 °F - 19.4 °F 15% 29.76 in 10.0 mi South 12.7 mph - N/A   Clear
10:35 PM 69.8 °F - 17.6 °F 14% 29.77 in 10.0 mi South 15.0 mph - N/A   Clear
10:55 PM 68.0 °F - 17.6 °F 15% 29.79 in 10.0 mi SSE 19.6 mph 25.3 mph N/A   Clear
11:15 PM 68.0 °F - 32.0 °F 26% 29.79 in 10.0 mi South 23.0 mph 29.9 mph N/A   Clear
11:35 PM 68.0 °F - 33.8 °F 28% 29.79 in 10.0 mi South 23.0 mph 31.1 mph N/A   Clear
11:55 PM 68.0 °F - 33.8 °F 28% 29.79 in 10.0 mi South 23.0 mph 31.1 mph N/A   Clear